Location: Blue Mountain Vista Observatory
(40.6992°N, 75.9422°W)
Time: 05:26:10
(UTC-04:00)

Amateur Radio Satellites - All Passes

Search period start: 05 July 2015 04:56
Search period end: 06 July 2015 04:56
Location: Blue Mountain Vista Observatory, 40.6992°N, 75.9422°W

Satellite Date Start Highest point End Downlink Frequencies (MHz)
Time Altitude Azimuth
MOZHAYETS 4 05 Jul 04:57:26 05:01:59 75° 258° (WSW) 05:06:36
RS-15 05 Jul 04:59:42 05:09:39 36° 324° (NW) 05:19:49 29.354- 29.394
Gurwin Techsat 1B 05 Jul 05:24:01 05:26:11 12° 300° (WNW) 05:28:05 435.225
ITAMSAT 1 05 Jul 05:26:53 05:28:49 12° 300° (WNW) 05:30:26 435.822/435.867
CUBESAT XI-V 05 Jul 05:27:04 05:30:23 20° 67° (ENE) 05:33:51 437.345
HORYU 2 05 Jul 05:28:57 05:33:15 47° 288° (WNW) 05:37:32 437.375
Cosmos 2504 05 Jul 05:50:21 05:57:00 51° 91° (E) 06:03:40 435.465 / 435.565
JAS-2 05 Jul 06:14:34 06:19:39 23° 296° (WNW) 06:24:54 435.910
YUBILEINY 05 Jul 06:24:57 06:29:10 13° 305° (NW) 06:32:48 435.215
CUTE-I 05 Jul 06:25:15 06:29:07 21° 92° (E) 06:33:09 437.470
STRAND 1 05 Jul 06:35:46 06:40:26 37° 69° (ENE) 06:45:11 437.568
AO-7 05 Jul 06:41:03 06:48:31 37° 299° (WNW) 06:55:49 29.400- 29.500
ISS 05 Jul 06:58:05 06:58:13 10° 130° (SE) 06:58:30 145.825
Cubesat XI-IV 05 Jul 06:58:48 07:03:54 43° 98° (E) 07:08:59 437.490
PRISM 05 Jul 06:59:27 07:03:31 55° 74° (ENE) 07:07:38 437.425
CUBESAT XI-V 05 Jul 07:03:03 07:07:32 44° 262° (W) 07:12:03 437.345
VERMONT LUNAR 05 Jul 07:17:10 07:19:39 22° 154° (SSE) 07:22:11 437.305
RS-15 05 Jul 07:18:54 07:26:44 20° 358° (N) 07:34:46 29.354- 29.394
O/OREOS (USA 219) 05 Jul 07:18:56 07:23:05 40° 106° (ESE) 07:27:17 437.305
BEESAT 3 05 Jul 07:20:32 07:24:31 58° 119° (ESE) 07:28:34 437.485
AIST 2 05 Jul 07:21:56 07:23:08 11° 109° (ESE) 07:24:36 435.215
BEESAT 2 05 Jul 07:33:40 07:37:42 64° 120° (ESE) 07:41:49 435.950
DANDE 05 Jul 07:34:43 07:40:38 29° 94° (E) 07:45:35 436.750
Cosmos 2504 05 Jul 07:43:50 07:49:35 26° 291° (WNW) 07:55:10 435.465 / 435.565
CUTE-I 05 Jul 08:04:21 08:09:32 50° 289° (WNW) 08:14:39 437.470
M-CUBED/EXP-1 PRIME 05 Jul 08:04:42 08:07:31 27° 66° (ENE) 08:10:30 437.505
CUSAT 1 05 Jul 08:07:57 08:14:29 71° 99° (E) 08:19:25 437.405
STRAND 1 05 Jul 08:15:24 08:19:44 26° 266° (W) 08:24:01 437.568
HO-68 05 Jul 08:17:02 08:20:46 15° 87° (E) 08:24:57 435.675
ISS 05 Jul 08:30:57 08:34:12 84° 323° (NW) 08:37:27 145.825
PRISM 05 Jul 08:37:39 08:39:23 12° 271° (W) 08:40:54 437.425
Cubesat XI-IV 05 Jul 08:39:24 08:43:47 25° 294° (WNW) 08:48:02 437.490
GOMX 1 05 Jul 08:43:00 08:46:33 27° 95° (E) 08:50:08 467.674
SEEDS 05 Jul 08:44:45 08:46:32 13° 89° (E) 08:48:33 437.485
VERMONT LUNAR 05 Jul 08:53:12 08:56:18 71° 169° (SSE) 08:59:25 437.305
AAUSAT CUBESAT 2 05 Jul 08:54:53 08:55:37 11° 88° (E) 08:56:37 437.432
AIST 2 05 Jul 08:56:59 09:01:13 69° 304° (WNW) 09:05:30 435.215
GONETS M04 05 Jul 08:58:03 09:06:22 51° 90° (E) 09:14:44
O/OREOS (USA 219) 05 Jul 08:59:22 09:02:43 20° 304° (NW) 09:06:00 437.305
BEESAT 3 05 Jul 09:00:12 09:02:52 16° 317° (NW) 09:05:27 437.485
AUBIESAT-1 05 Jul 09:03:52 09:07:06 52° 255° (WSW) 09:10:28 437.475
BRITE-PL 05 Jul 09:11:09 09:15:28 80° 284° (WNW) 09:19:36 437.365/2234.400
BEESAT 2 05 Jul 09:13:39 09:16:14 16° 318° (NW) 09:18:42 435.950
DANDE 05 Jul 09:16:57 09:23:46 44° 283° (WNW) 09:29:02 436.750
COMPASS 1 05 Jul 09:19:23 09:22:50 25° 94° (E) 09:26:23 437.405
PHONESAT 2.4 05 Jul 09:21:37 09:24:48 36° 158° (SSE) 09:28:01 2401.200-2431.200
DOVE 4 05 Jul 09:22:59 09:27:00 47° 99° (E) 09:31:02 437.250
CUTE 1.7 + AOD 2 05 Jul 09:31:29 09:35:41 54° 99° (E) 09:39:53 437.475
RS-15 05 Jul 09:34:14 09:44:11 32° 32° (NNE) 09:54:41 29.354- 29.394
CANX-2 05 Jul 09:34:55 09:39:12 67° 100° (E) 09:43:28 2200.000
UNISAT 6 05 Jul 09:35:14 09:37:07 13° 65° (ENE) 09:39:11 437.425
M-CUBED/EXP-1 PRIME 05 Jul 09:40:29 09:42:31 15° 263° (W) 09:44:28 437.505
FUNcube-1 05 Jul 09:47:02 09:47:11 10° 88° (E) 09:47:37 145.935
CUSAT 1 05 Jul 09:53:51 09:57:13 15° 289° (WNW) 09:59:56 437.405
UWE-3 05 Jul 09:59:10 10:02:14 20° 93° (E) 10:05:29 435.000/436.395/437.385
HO-68 05 Jul 10:02:21 10:09:34 89° 287° (WNW) 10:16:45 435.675
CINEMA 3 05 Jul 10:02:41 10:06:49 59° 100° (E) 10:11:01 145.822/145.860
ISS 05 Jul 10:08:39 10:11:00 18° 342° (NNW) 10:13:20 145.825
QB50P1 05 Jul 10:11:41 10:13:40 13° 65° (ENE) 10:15:51 145.935-145.965
ANTELSAT 05 Jul 10:17:30 10:21:24 36° 72° (ENE) 10:25:21 437.575/2403.000
SEEDS 05 Jul 10:18:33 10:22:43 53° 286° (WNW) 10:26:52 437.485
GOMX 1 05 Jul 10:21:17 10:24:39 23° 291° (WNW) 10:27:52 467.674
NANOSAT C BR1 05 Jul 10:24:37 10:27:28 18° 67° (ENE) 10:30:25 145.865
AAUSAT CUBESAT 2 05 Jul 10:27:32 10:31:43 63° 285° (WNW) 10:35:52 437.432
TIGRISAT 05 Jul 10:29:15 10:33:21 47° 73° (ENE) 10:37:28 435.000
VERMONT LUNAR 05 Jul 10:30:04 10:33:12 84° 189° (S) 10:36:21 437.305
DUCHIFAT 1 05 Jul 10:30:58 10:34:04 21° 68° (ENE) 10:37:16 145.980
DX 1 05 Jul 10:31:09 10:32:22 11° 89° (E) 10:33:52 434.975-435.025
Cosmos 2499 05 Jul 10:32:16 10:38:35 38° 89° (E) 10:45:05 435.465 / 435.565
POLYITAN 1 05 Jul 10:36:47 10:40:13 25° 69° (ENE) 10:43:44 437.675
DELFI C3 05 Jul 10:37:24 10:41:22 49° 99° (E) 10:45:20 145.870
AIST 2 05 Jul 10:39:40 10:40:39 11° 324° (NW) 10:41:28 435.215
ZACube-1 05 Jul 10:44:04 10:48:11 49° 99° (E) 10:52:23 437.345
BUGSAT 1 05 Jul 10:44:17 10:47:16 19° 68° (ENE) 10:50:20 437.445
CUBEBUG 2 05 Jul 10:45:26 10:49:40 86° 103° (ESE) 10:53:59 437.445
UKube-1 05 Jul 10:49:27 10:52:14 17° 92° (E) 10:55:08 .
Oscar 11 05 Jul 10:50:58 10:55:20 80° 284° (WNW) 10:59:41 145.826/435.025
COMPASS 1 05 Jul 10:54:53 10:58:29 27° 290° (WNW) 11:02:02 437.405
GONETS M04 05 Jul 10:55:36 11:03:33 35° 290° (WNW) 11:11:19
HUMSAT D 05 Jul 10:56:19 10:59:53 28° 95° (E) 11:03:32 437.325/437.525
PHONESAT 2.4 05 Jul 10:59:12 11:02:40 85° 175° (S) 11:06:08 2401.200-2431.200
DOVE 4 05 Jul 11:02:09 11:04:27 14° 294° (WNW) 11:06:34 437.250
QB50P2 05 Jul 11:05:33 11:09:41 53° 74° (ENE) 11:13:50 145.880/145.840
POPSAT HIP 1 05 Jul 11:06:04 11:10:11 51° 74° (ENE) 11:14:19 437.405
CUTE 1.7 + AOD 2 05 Jul 11:08:54 11:11:12 14° 295° (WNW) 11:13:20 437.475
UNISAT 6 05 Jul 11:09:15 11:13:29 57° 260° (W) 11:17:42 437.425
AISAT 05 Jul 11:10:45 11:13:46 18° 92° (E) 11:16:54 437.250
CANX-2 05 Jul 11:13:02 11:14:38 12° 296° (WNW) 11:16:01 2200.000
FUNcube-1 05 Jul 11:19:49 11:24:00 66° 285° (WNW) 11:28:16 145.935
CUBEBUG 1 05 Jul 11:26:26 11:28:42 14° 90° (E) 11:31:08 437.445
UWE-3 05 Jul 11:35:03 11:38:53 33° 288° (WNW) 11:42:44 435.000/436.395/437.385
CINEMA 3 05 Jul 11:41:55 11:43:37 12° 295° (WNW) 11:45:08 145.822/145.860
QB50P1 05 Jul 11:44:57 11:49:07 55° 259° (W) 11:53:18 145.935-145.965
ESTCUBE 1 05 Jul 11:45:21 11:49:16 28° 95° (E) 11:53:13 437.505/2401.250
RS-15 05 Jul 11:46:42 11:58:30 88° 59° (ENE) 12:10:44 29.354- 29.394
ISS 05 Jul 11:46:59 11:48:22 12° 2° (N) 11:49:46 145.825
HO-68 05 Jul 11:51:48 11:56:28 18° 304° (NW) 12:00:50 435.675
ANTELSAT 05 Jul 11:55:18 11:58:22 18° 268° (W) 12:01:17 437.575/2403.000
VELOX 1 05 Jul 11:58:45 12:03:09 60° 101° (E) 12:07:29 145.980
NANOSAT C BR1 05 Jul 11:59:04 12:03:03 38° 262° (W) 12:07:00 145.865
DX 1 05 Jul 12:04:48 12:09:07 62° 287° (WNW) 12:13:23 434.975-435.025
DUCHIFAT 1 05 Jul 12:05:51 12:09:42 33° 263° (W) 12:13:31 145.980
VERMONT LUNAR 05 Jul 12:07:05 12:09:57 33° 202° (SSW) 12:12:51 437.305
TIGRISAT 05 Jul 12:08:04 12:10:26 14° 270° (W) 12:12:37 435.000
50 SAT 05 Jul 12:11:59 12:15:54 74° 284° (WNW) 12:19:49 437.505
POLYITAN 1 05 Jul 12:12:24 12:16:04 27° 265° (W) 12:19:39 437.675
DELFI C3 05 Jul 12:13:55 12:16:04 14° 294° (WNW) 12:18:05 145.870
BUGSAT 1 05 Jul 12:18:36 12:22:31 35° 263° (W) 12:26:24 437.445
ZACube-1 05 Jul 12:21:45 12:24:13 15° 294° (WNW) 12:26:32 437.345
SPROUT 05 Jul 12:24:24 12:27:15 18° 92° (E) 12:30:14 437.525
UKube-1 05 Jul 12:24:30 12:28:35 41° 289° (WNW) 12:32:37 .
Cosmos 2499 05 Jul 12:25:22 12:31:47 35° 288° (WNW) 12:38:12 435.465 / 435.565
HUMSAT D 05 Jul 12:32:09 12:35:32 24° 291° (WNW) 12:38:52 437.325/437.525
PHONESAT 2.4 05 Jul 12:37:14 12:40:40 71° 192° (SSW) 12:44:08 2401.200-2431.200
YUBILEINY 05 Jul 12:39:43 12:41:20 11° 52° (NE) 12:43:42 435.215
QB50P2 05 Jul 12:43:55 12:45:57 13° 271° (W) 12:47:45 145.880/145.840
POPSAT HIP 1 05 Jul 12:44:20 12:46:25 13° 270° (W) 12:48:18 437.405
AISAT 05 Jul 12:46:25 12:50:32 39° 289° (WNW) 12:54:36 437.250
CUBEBUG 1 05 Jul 13:01:11 13:05:25 49° 287° (WNW) 13:09:35 437.445
TISAT 1 05 Jul 13:01:42 13:05:21 29° 96° (E) 13:09:02 437.305
Oscar 19 05 Jul 13:09:51 13:14:40 43° 71° (ENE) 13:19:31 437.125/150
ESTCUBE 1 05 Jul 13:22:13 13:26:05 27° 291° (WNW) 13:29:51 437.505/2401.250
ISS 05 Jul 13:23:02 13:25:40 22° 22° (NNE) 13:28:19 145.825
Gurwin Techsat 1B 05 Jul 13:24:38 13:28:08 19° 64° (ENE) 13:31:49 435.225
ITAMSAT 1 05 Jul 13:25:13 13:28:35 18° 63° (ENE) 13:32:07 435.822/435.867
VELOX 1 05 Jul 13:36:59 13:39:14 13° 296° (WNW) 13:41:17 145.980
BEESAT 05 Jul 13:54:21 13:57:41 19° 92° (E) 14:01:10 436.000
AO-7 05 Jul 13:58:31 14:02:54 16° 49° (NE) 14:07:41 29.400- 29.500
SPROUT 05 Jul 13:59:32 14:03:32 38° 288° (WNW) 14:07:28 437.525
RS-15 05 Jul 14:00:48 14:09:51 25° 257° (WSW) 14:18:28 29.354- 29.394
SWISSCUBE 05 Jul 14:09:30 14:13:41 30° 95° (E) 14:17:54 437.505
ITUPSAT 1 05 Jul 14:15:17 14:19:30 30° 96° (E) 14:23:46 437.325
PHONESAT 2.4 05 Jul 14:15:32 14:18:25 24° 207° (SSW) 14:21:16 2401.200-2431.200
YUBILEINY 05 Jul 14:32:02 14:40:39 59° 77° (ENE) 14:49:19 435.215
TISAT 1 05 Jul 14:37:41 14:41:01 23° 291° (WNW) 14:44:13 437.305
JAS-2 05 Jul 14:42:37 14:46:39 24° 65° (ENE) 14:50:58 435.910
Oscar 19 05 Jul 14:50:13 14:54:15 22° 267° (W) 14:58:09 437.125/150
HORYU 2 05 Jul 14:52:18 14:54:45 15° 65° (ENE) 14:57:22 437.375
KKS-1 05 Jul 14:53:18 14:54:55 12° 89° (E) 14:56:47 437.445
Cosmos 2491 05 Jul 14:53:24 15:01:22 41° 88° (E) 15:09:27 435.465 / 435.565
ISS 05 Jul 14:59:06 15:02:17 58° 220° (SW) 15:05:28 145.825
Gurwin Techsat 1B 05 Jul 15:02:29 15:07:42 59° 259° (W) 15:12:58 435.225
ITAMSAT 1 05 Jul 15:02:30 15:07:38 60° 259° (WSW) 15:12:51 435.822/435.867
BEESAT 05 Jul 15:31:13 15:35:47 44° 289° (WNW) 15:40:19 436.000
Cosmos 2504 05 Jul 15:37:09 15:41:15 16° 62° (ENE) 15:45:57 435.465 / 435.565
BEESAT 3 05 Jul 15:39:30 15:43:11 32° 50° (NE) 15:46:50 437.485
STARS 05 Jul 15:41:07 15:44:41 24° 95° (E) 15:48:18 437.465
AIST 1 05 Jul 15:42:29 15:46:44 52° 94° (E) 15:51:04
AIST 2 05 Jul 15:43:16 15:43:46 10° 36° (NE) 15:44:27 435.215
AO-7 05 Jul 15:46:07 15:54:21 69° 68° (ENE) 16:02:41 29.400- 29.500
SWISSCUBE 05 Jul 15:47:20 15:51:29 29° 292° (WNW) 15:55:34 437.505
SO-50 05 Jul 15:49:28 15:52:14 16° 110° (ESE) 15:55:15 436.795
PCSat 05 Jul 15:49:41 15:55:03 68° 116° (ESE) 16:00:27 145.827
BEESAT 2 05 Jul 15:53:11 15:56:59 35° 51° (NE) 16:00:43 435.950
ITUPSAT 1 05 Jul 15:53:12 15:57:21 29° 292° (WNW) 16:01:24 437.325
HORYU 2 05 Jul 16:26:41 16:31:00 52° 260° (W) 16:35:20 437.375
JAS-2 05 Jul 16:26:45 16:31:36 40° 263° (W) 16:36:38 435.910
KKS-1 05 Jul 16:27:39 16:32:02 60° 286° (WNW) 16:36:23 437.445
YUBILEINY 05 Jul 16:29:42 16:37:01 30° 276° (W) 16:44:05 435.215
Cosmos 2491 05 Jul 16:49:52 16:58:14 44° 287° (WNW) 17:06:29 435.465 / 435.565
MOZHAYETS 4 05 Jul 16:53:15 16:57:09 26° 94° (E) 17:01:06
STARS 05 Jul 17:17:19 17:21:08 29° 290° (WNW) 17:24:53 437.465
BEESAT 3 05 Jul 17:17:46 17:20:59 22° 247° (WSW) 17:24:05 437.485
AIST 2 05 Jul 17:19:00 17:23:13 69° 56° (NE) 17:27:20 435.215
AIST 1 05 Jul 17:22:29 17:24:49 14° 292° (WNW) 17:26:58
Cosmos 2504 05 Jul 17:27:05 17:34:39 85° 84° (E) 17:42:47 435.465 / 435.565
SO-50 05 Jul 17:27:38 17:32:19 61° 306° (NW) 17:37:10 436.795
O/OREOS (USA 219) 05 Jul 17:28:46 17:33:19 76° 67° (ENE) 17:37:51 437.305
BEESAT 2 05 Jul 17:31:44 17:34:50 21° 247° (WSW) 17:37:49 435.950
PCSat 05 Jul 17:34:58 17:39:01 20° 316° (NW) 17:42:58 145.827
AO-7 05 Jul 17:41:05 17:47:53 26° 268° (W) 17:54:25 29.400- 29.500
CUTE-I 05 Jul 17:46:32 17:51:16 34° 68° (ENE) 17:56:06 437.470
Cubesat XI-IV 05 Jul 18:20:25 18:25:44 68° 74° (ENE) 18:31:07 437.490
MOZHAYETS 4 05 Jul 18:30:17 18:34:23 30° 290° (WNW) 18:38:24
BRITE-PL 05 Jul 18:45:10 18:47:51 15° 65° (ENE) 18:50:43 437.365/2234.400
CUSAT 1 05 Jul 18:46:57 18:49:09 23° 75° (ENE) 18:51:22 437.405
HO-68 05 Jul 18:47:47 18:50:33 13° 52° (NE) 18:53:44 435.675
STRAND 1 05 Jul 18:48:33 18:50:24 12° 87° (E) 18:52:33 437.568
CUBESAT XI-V 05 Jul 18:59:52 19:04:23 47° 98° (E) 19:08:53 437.345
AIST 2 05 Jul 19:00:11 19:01:15 11° 251° (WSW) 19:02:05 435.215
GONETS M04 05 Jul 19:09:09 19:15:44 24° 64° (ENE) 19:22:38
SO-50 05 Jul 19:12:07 19:13:58 12° 327° (NNW) 19:15:40 436.795
Cosmos 2504 05 Jul 19:21:22 19:26:08 17° 278° (W) 19:30:36 435.465 / 435.565
CUTE-I 05 Jul 19:26:36 19:31:22 31° 265° (W) 19:36:05 437.470
GOMX 1 05 Jul 19:50:12 19:54:45 34° 71° (ENE) 19:59:06 467.674
DANDE 05 Jul 19:59:50 20:02:18 30° 265° (W) 20:04:37 436.750
Cubesat XI-IV 05 Jul 20:03:20 20:06:26 15° 271° (W) 20:09:17 437.490
COMPASS 1 05 Jul 20:11:06 20:13:46 17° 67° (ENE) 20:16:33 437.405
PRISM 05 Jul 20:17:10 20:21:23 85° 285° (WNW) 20:25:34 437.425
BRITE-PL 05 Jul 20:20:27 20:25:56 76° 258° (WSW) 20:31:04 437.365/2234.400
Cosmos 2499 05 Jul 20:23:42 20:27:19 14° 60° (ENE) 20:31:35 435.465 / 435.565
CUTE 1.7 + AOD 2 05 Jul 20:24:06 20:27:56 36° 72° (ENE) 20:31:51 437.475
STRAND 1 05 Jul 20:25:08 20:30:18 77° 286° (WNW) 20:35:25 437.568
CANX-2 05 Jul 20:27:31 20:31:30 44° 73° (ENE) 20:35:33 2200.000
DOVE 4 05 Jul 20:27:50 20:32:30 50° 74° (ENE) 20:36:56 437.250
HO-68 05 Jul 20:30:05 20:37:07 67° 71° (ENE) 20:44:13 435.675
CUBESAT XI-V 05 Jul 20:38:16 20:41:30 18° 294° (WNW) 20:44:35 437.345
AUBIESAT-1 05 Jul 20:45:57 20:46:48 11° 94° (E) 20:47:58 437.475
UWE-3 05 Jul 20:56:57 20:59:31 16° 67° (ENE) 21:02:12 435.000/436.395/437.385
CINEMA 3 05 Jul 21:04:02 21:08:24 53° 74° (ENE) 21:12:37 145.822/145.860
GONETS M04 05 Jul 21:04:55 21:13:35 73° 266° (W) 21:22:11
SEEDS 05 Jul 21:09:53 21:14:03 82° 256° (WSW) 21:18:17 437.485
AAUSAT CUBESAT 2 05 Jul 21:17:36 21:21:44 82° 77° (ENE) 21:25:54 437.432
M-CUBED/EXP-1 PRIME 05 Jul 21:19:01 21:22:47 29° 101° (ESE) 21:26:49 437.505
DELFI C3 05 Jul 21:24:33 21:27:59 28° 70° (ENE) 21:31:29 145.870
DX 1 05 Jul 21:27:23 21:28:25 11° 62° (ENE) 21:29:41 434.975-435.025
GOMX 1 05 Jul 21:28:34 21:32:54 26° 265° (W) 21:36:57 467.674
ZACube-1 05 Jul 21:39:59 21:43:49 36° 72° (ENE) 21:47:40 437.345
CUBEBUG 2 05 Jul 21:43:20 21:47:35 68° 76° (ENE) 21:51:46 437.445
UKube-1 05 Jul 21:44:38 21:47:06 15° 65° (ENE) 21:49:43 .
Oscar 11 05 Jul 21:45:10 21:49:27 75° 75° (ENE) 21:53:46 145.826/435.025
COMPASS 1 05 Jul 21:45:15 21:49:09 39° 262° (W) 21:53:05 437.405
HUMSAT D 05 Jul 21:48:30 21:51:23 19° 68° (ENE) 21:54:23 437.325/437.525
CUTE 1.7 + AOD 2 05 Jul 22:01:03 22:04:02 18° 268° (W) 22:06:53 437.475
CANX-2 05 Jul 22:05:12 22:07:43 15° 270° (W) 22:10:04 2200.000
DOVE 4 05 Jul 22:07:23 22:10:31 16° 269° (W) 22:13:22 437.250
AISAT 05 Jul 22:08:40 22:11:33 18° 66° (ENE) 22:14:35 437.250
Cosmos 2499 05 Jul 22:14:04 22:21:58 75° 81° (E) 22:30:30 435.465 / 435.565
FUNcube-1 05 Jul 22:15:06 22:19:19 89° 268° (W) 22:23:29 145.935
AUBIESAT-1 05 Jul 22:17:40 22:21:56 74° 289° (WNW) 22:26:29 437.475
HO-68 05 Jul 22:19:59 22:25:29 23° 269° (W) 22:30:45 435.675
CUBEBUG 1 05 Jul 22:23:05 22:25:02 13° 64° (ENE) 22:27:12 437.445
UWE-3 05 Jul 22:31:45 22:35:47 42° 262° (W) 22:39:46 435.000/436.395/437.385
CINEMA 3 05 Jul 22:43:39 22:45:57 13° 270° (W) 22:48:00 145.822/145.860
ESTCUBE 1 05 Jul 22:44:53 22:48:37 26° 69° (ENE) 22:52:26 437.505/2401.250
M-CUBED/EXP-1 PRIME 05 Jul 22:53:53 22:57:31 27° 295° (WNW) 23:01:18 437.505
50 SAT 05 Jul 22:55:36 22:59:21 55° 74° (ENE) 23:03:07 437.505
VELOX 1 05 Jul 22:55:50 23:00:09 52° 73° (ENE) 23:04:31 145.980
PCSat 05 Jul 22:58:09 22:58:21 10° 34° (NNE) 22:58:47 145.827
DX 1 05 Jul 22:59:43 23:04:06 76° 256° (WSW) 23:08:31 434.975-435.025
DELFI C3 05 Jul 22:59:59 23:03:06 21° 267° (W) 23:06:08 145.870
UNISAT 6 05 Jul 23:01:24 23:05:12 28° 96° (E) 23:09:07 437.425
GONETS M04 05 Jul 23:05:33 23:09:03 12° 284° (WNW) 23:11:50
ZACube-1 05 Jul 23:17:26 23:20:21 18° 268° (W) 23:23:07 437.345
UKube-1 05 Jul 23:18:38 23:22:51 50° 260° (W) 23:27:06 .
SPROUT 05 Jul 23:19:09 23:21:26 15° 66° (ENE) 23:23:54 437.525
HUMSAT D 05 Jul 23:23:13 23:26:56 33° 263° (W) 23:30:38 437.325/437.525
QB50P1 05 Jul 23:30:49 23:34:09 23° 94° (E) 23:37:34 145.935-145.965
AISAT 05 Jul 23:43:31 23:47:49 45° 261° (W) 23:52:07 437.250
NANOSAT C BR1 05 Jul 23:44:08 23:47:53 32° 96° (E) 23:51:41 145.865
ANTELSAT 05 Jul 23:45:32 23:49:57 88° 103° (ESE) 23:54:28 437.575/2403.000
DUCHIFAT 1 05 Jul 23:50:28 23:54:21 37° 98° (E) 23:58:15 145.980
TISAT 1 05 Jul 23:53:52 23:57:08 23° 68° (ENE) 00:00:29 437.305
CUBEBUG 1 05 Jul 23:56:31 00:00:55 63° 259° (W) 00:05:20 437.445
TIGRISAT 05 Jul 23:57:15 00:01:38 72° 284° (WNW) 00:06:05 435.000
POLYITAN 1 05 Jul 23:57:20 00:01:24 47° 99° (E) 00:05:29 437.675
BUGSAT 1 06 Jul 00:01:05 00:04:41 31° 96° (E) 00:08:17 437.445
Cosmos 2499 06 Jul 00:08:43 00:14:32 22° 276° (W) 00:20:13 435.465 / 435.565
SO-50 06 Jul 00:19:50 00:23:14 19° 40° (NE) 00:26:44 436.795
ESTCUBE 1 06 Jul 00:21:24 00:25:24 30° 265° (W) 00:29:22 437.505/2401.250
QB50P2 06 Jul 00:26:43 00:30:56 77° 284° (WNW) 00:35:08 145.880/145.840
POPSAT HIP 1 06 Jul 00:27:03 00:31:16 79° 284° (WNW) 00:35:28 437.405
VELOX 1 06 Jul 00:34:31 00:37:04 14° 270° (W) 00:39:26 145.980
PCSat 06 Jul 00:37:55 00:43:12 50° 55° (NE) 00:48:28 145.827
UNISAT 6 06 Jul 00:38:14 00:41:55 26° 290° (WNW) 00:45:35 437.425
SPROUT 06 Jul 00:52:56 00:57:08 52° 261° (W) 01:01:22 437.525
BEESAT 06 Jul 01:00:42 01:04:17 22° 66° (ENE) 01:08:01 436.000
Cosmos 2491 06 Jul 01:04:40 01:10:24 20° 61° (ENE) 01:16:33 435.465 / 435.565
QB50P1 06 Jul 01:06:23 01:10:02 28° 290° (WNW) 01:13:37 145.935-145.965
SWISSCUBE 06 Jul 01:15:47 01:20:01 33° 69° (ENE) 01:24:21 437.505
NANOSAT C BR1 06 Jul 01:20:21 01:23:34 21° 292° (WNW) 01:26:40 145.865
ITUPSAT 1 06 Jul 01:21:48 01:26:05 34° 70° (ENE) 01:30:28 437.325
Oscar 19 06 Jul 01:22:58 01:25:46 15° 89° (E) 01:28:49 437.125/150
DUCHIFAT 1 06 Jul 01:26:57 01:29:55 18° 293° (WNW) 01:32:45 145.980
TISAT 1 06 Jul 01:28:59 01:32:46 30° 264° (W) 01:36:31 437.305
POLYITAN 1 06 Jul 01:34:28 01:36:58 15° 294° (WNW) 01:39:18 437.675
BUGSAT 1 06 Jul 01:36:58 01:39:59 20° 292° (WNW) 01:42:54 437.445
YUBILEINY 06 Jul 01:43:25 01:45:22 11° 76° (ENE) 01:48:04 435.215
AIST 1 06 Jul 01:51:34 01:53:34 13° 68° (ENE) 01:55:46
KKS-1 06 Jul 01:51:55 01:53:31 12° 63° (ENE) 01:55:19 437.445
SO-50 06 Jul 01:59:25 02:04:23 74° 241° (WSW) 02:09:14 436.795
RS-15 06 Jul 02:09:39 02:20:09 60° 114° (ESE) 02:31:04 29.354- 29.394
PCSat 06 Jul 02:22:06 02:26:19 22° 252° (WSW) 02:30:21 145.827
BEESAT 06 Jul 02:37:25 02:41:55 40° 262° (W) 02:46:24 436.000
STARS 06 Jul 02:38:03 02:41:24 22° 67° (ENE) 02:44:50 437.465
SWISSCUBE 06 Jul 02:53:56 02:57:56 25° 266° (W) 03:01:53 437.505
Cosmos 2491 06 Jul 02:59:53 03:08:41 88° 263° (W) 03:17:24 435.465 / 435.565
ITUPSAT 1 06 Jul 03:00:06 03:04:04 25° 266° (W) 03:07:57 437.325
Oscar 19 06 Jul 03:00:33 03:05:38 62° 287° (WNW) 03:10:42 437.125/150
ITAMSAT 1 06 Jul 03:15:38 03:20:43 50° 99° (E) 03:25:46 435.822/435.867
Gurwin Techsat 1B 06 Jul 03:18:53 03:24:08 57° 100° (E) 03:29:22 435.225
KKS-1 06 Jul 03:25:12 03:29:38 70° 259° (WSW) 03:34:05 437.445
AIST 1 06 Jul 03:27:25 03:31:40 52° 266° (W) 03:35:51
YUBILEINY 06 Jul 03:32:11 03:40:44 68° 94° (E) 03:49:22 435.215
JAS-2 06 Jul 03:34:00 03:39:43 29° 94° (E) 03:46:05 435.910
AO-7 06 Jul 03:49:21 03:55:15 22° 90° (E) 04:01:31 29.400- 29.500
MOZHAYETS 4 06 Jul 03:55:11 03:58:50 25° 68° (ENE) 04:02:36
STARS 06 Jul 04:13:40 04:17:40 33° 263° (W) 04:21:39 437.465
HORYU 2 06 Jul 04:18:19 04:22:11 29° 96° (E) 04:26:07 437.375
RS-15 06 Jul 04:22:42 04:33:04 44° 319° (NW) 04:43:43 29.354- 29.394
